Погода в Кишиневе

Погода в Кишиневе : погода сейчас, прогноз погоды и архив. Всё, что Вы хотите узнать о погоде в Кишиневе!

Хотите узнать прогноз погоды в Кишинёве? Тогда Вам сюда: Погода в Кишинёве

Поиск расширенной информации на нашем сайте:

Другие новости

Новости СМИ2

Главная страница сайта

Новости сайта

02.10.2013

Напоминаем, что на нашем новом сайте вы можете получить высокодетализированные прогнозы погоды по пунктам России, СНГ и мира (включающие важные для авиации метеовеличины, такие как направление и скорость ветра, видимость, явления погоды, количество и форма облачности, нижняя и верхняя граница облачности), а также ознакомиться с разнообразными материалами по авиационной метеорологии и подборкой полезных ссылок на эту тему.

Сайт Метеоцентр.Азия посвящён разработке технологий оптимизации авиаметеорологического обслуживания, включая проектирование и перспективное создание нескольких автоматизированных авиаметеорологических систем:
- система выпуска высокодетальных прогностических карт явлений погоды для нижнего воздушного пространства по России и ближнему зарубежью;
- система верификации прогнозов TAF (выпускаемых синоптиками официальных АМСГ РФ и ближнего зарубежья) и AUTOTAF (выпускаемых сайтом Метеоцентр.Азия) - выявление ошибок, онлайн-сопоставление с фактической погодой METAR, автоматическое внесение коррективов в прогнозы при резком отклонении фактической погоды от прогноза, подсчёт оправдываемости прогнозов по элементам и в целом;
- система обработки, анализа и отображения авиаметеорологической информации для применения провайдерами метеорологической информации.


Погода в Кишиневе - сегодня

Время (UTC), дата Ветер
(°,м/с) 
Видим.   Явления Облачность Т
(°С)
Тd
(°С)
f(%) Тe
(°С)
Pmin
(гПа)
dP
(гПа)
Po
(мм)
O2
(г/м3)
Тmin Tmax R s Состояние
почвы
21 24.03.17 330 (СЗ) 6{13}  10 км  в посл. час ливневой дождь  10/8 600 м кучево-дожд., средняя 
[Cb calv|Ac trans]
+8.5 +6.1 85 +7  1022.8  1.7  752  293           
00 25.03.17 330 (СЗ) 10 км  {ливн. осадки}  10/8 600 м кучево-дожд., средняя 
[Cb calv|Ac trans]
+7.4 +3.9 78 +5  1023.2  0.7  752  295    -0.7       
03 25.03.17 340 (С) 20000 м    6/4 600 м средняя 
[Sc|Ac trans]
+5.9 +1.8 75 +4  1024  -0.1  752  296           
06 25.03.17 010 (С) 20000 м    4/0 средняя, верхняя 
[Ac trans|Ci fib]
+6.2 +1.9 74 +5  1024.4  0.4  753  296  +4.7       
09 25.03.17 330 (СЗ) 20000 м    8/4 600 м средняя, верхняя 
[Cu hum|Ac trans|Ci fib]
+10.5 -3.9 36 +10  1023.3  -0.8  752  292           
12 25.03.17 300 (СЗ) 20000 м    10/9 600 м верхняя 
[Cu hum|Cs]
+12.1 -5.4 29 +12  1020.7  -2.4  750  290           
15 25.03.17 340 (С) 20000 м    10/6 600 м верхняя 
[Cu hum|Ci fib]
+11.1 -5.8 30 +10  1018.1  -2.6  748  290           
18 25.03.17 290 (З) 20000 м    6/0 средняя 
[Ac trans]
+8 -4.4 41 +8  1017.4  -0.9  748  293    +12.9       
21 25.03.17 320 (СЗ) 20000 м    9/0 средняя 
[Ac trans]
+7.1 -1.1 56 +7  1015.9  -1.5  746  293           
00 26.03.17 240 (ЮЗ) 20000 м  слаб. дождь  9/9 600 м 
[Sc]
+5.7 -0.2 66 +5  1014.5  -1.5  745  294           
03 26.03.17 тихо ()   20000 м  слаб. дождь  10/10 600 м 
[Sc]
+4.9 +1.9 81 +5  1012.7  -1.8  744  294           
06 26.03.17 340 (С) 10 км  слаб. дождь  10/10 600 м 
[Ns]
+3.2 +1.4 88 +2  1013.2  0.3  744  296  +3.2       
09 26.03.17 350 (С) 10 км  в посл. час дождь  10/10 600 м 
[Sc|Ns]
+4.6 +1.1 78 +3  1014.4  1.3  745  295           
12 26.03.17 340 (С) 20000 м  {дождь}  10/10 600 м кучево-дожд. 
[Cb calv]
+5 -0.6 67 +3  1015.3  0.9  746  295           
15 26.03.17 330 (СЗ) 20000 м    10/10 600 м кучево-дожд. 
[Cb calv]
+4 +0 75 +2  1016.7  1.3  747  297           
18 26.03.17 350 (С) 20000 м    10/10 600 м 
[Sc]
+3.7 +0.7 81 +2  1019.4  2.6  749  298    +5.2  0.0     
21 26.03.17 340 (С) 20000 м    4/0 средняя, верхняя 
[Ac lent|Ci fib]
+3.1 +0.2 81 +1  1021.3  1.9  750  299           
00 27.03.17 340 (С) 20000 м    ясно 
+2.2 -1.1 79 1021.9  0.5  751  300           
03 27.03.17 320 (СЗ) 20000 м    3/0 верхняя 
[Ci fib]
+1.2 -1.4 83 -2  1021.5  -0.5  750  301           
06 27.03.17 290 (З) 20000 м    5/0 средняя 
[Ac lent]
+2.9 -1.5 73 1021.1  -0.3  750  299  +0.9         
09 27.03.17 300 (СЗ) 5{12}  20000 м    10/6 600 м средняя 
[Sc|Ac trans]
+6.2 -1.4 58 +4  1019.7  -1.1  749  295           
12 27.03.17 300 (СЗ) 9{14}  20000 м    4/1 600 м средняя 
[Cu hum|Ac lent]
+11.1 -1 43 +9  1016.5  -2.8  747  289           
15 27.03.17 310 (СЗ) 7{15}  20000 м    8/4 600 м средняя 
[Sc|Ac trans]
+13 +0.4 42 +12  1015.5  -0.8  746  287           
18 27.03.17 300 (СЗ) 4{12}  20000 м    3/0 средняя 
[Ac trans]
+11.1 +0.8 49 +10  1017  1.3  747  289    +13.4       
21 27.03.17 330 (СЗ) 20000 м    3/0 средняя 
[Ac trans]
+9.9 +1.5 56 +9  1018.1  748  291           
Время (UTC), дата Ветер
(°,м/с) 
Видим.   Явления Облачность Т
(°С)
Тd
(°С)
f(%) Тe
(°С)
Pmin
(гПа)
dP
(гПа)
Po
(мм)
O2
(г/м3)
Тmin Tmax R s Состояние
почвы

Для получения пояснительной информации подведите курсор к названию столбца.

ПОГОДА в Кишиневе - архив

Всё, что Вы хотите узнать о погоде в Кишиневе - удобно и подробно!

Выберите нужную дату (начиная с 1 января 2015* года) и нажмите кнопку "Найти".
Будут отображены архивные сводки погоды по пункту Кишинев, начиная с указанной даты.


Отображать данные в формате CSV (для использования в таблицах Excel)


Внимание! Наш архив погоды предназначен исключительно для личного некоммерческого использования в познавательных целях. Если Вам необходимы официальные справки о состоянии погоды (для производственных, юридических, коммерческих и т.п. целей), обращайтесь в органы Росгидромета.

*Примечание: данная дата относится к архиву по метеостанциям СССР (Россия, СНГ, Балтия).
Архив по метеостанциям Зарубежной Европы и Азии (кроме Китая) хранится 10 дней, по другим регионам земного шара (Китай, Африка, Америка, Австралия, Океания) - 1 день.

Кишинев - район местоположения метеостанции


Название, широта, долгота, высота метеостанции:
Кишинев 47°ш. 29°д. 173 м над ур. моря [Молдавия]

Дополнительная информация

В oтличие oт бoльшинства пoгoдных сайтoв мы публикуем пoдрoбную метеoинфoрмацию в детальнoм прoфессиoнальнoм фoрмате.

Характеристики температуры и влажнoсти вoздуха измеряются на высoте 2 м в тени вдали oт зданий и деревьев.
Скoрoсть ветра измеряется на высoте 10 м (на урoвне рoста челoвека скoрoсть ветра ниже в 1.5-2 раза). Если метеoстанция нахoдится в гoрoде или в лесу, тo скoрoсть ветра занижена на 2-4 м/с пo сравнению с oткрытым местoм. Скoрoсть ветра над акватoриями крупных рек и oзёр, а также на вершинах хoлмoв на 2-5 м/с выше, чем в oбычных услoвиях.
Атмoсфернoе давление в разных тoчках местнoсти мoжет значительнo oтличаться oт давления на метеoстанции, в зависимoсти oт услoвий рельефа (при пoдъёме на 10 м давление пoнижается примернo на 1 мм рт.ст.).